Find Starlink 36332

NORAD ID: 67862 Int'l Des: 2026-034 Owner: SPXS Country: US Constellation: starlink operational
LEOCIRCULAR

Current View

Loading 3D Globe...

About Starlink 36332

Description loading...

Upcoming Passes

Passes for default location (London). Set your location on the main map for personalized predictions.

Altitude History

Loading altitude history...

Two-Line Element Set

1 67862U 26034N 26146.15972237 .00014636 00000-0 50514-3 0 9997
2 67862 53.1577 204.6188 0001435 94.7531 265.3634 15.30209687 15893
Epoch: May 26, 2026 • Age: 10 hours

Current Status

Altitude 480.7 km
Velocity 7.63 km/s
Sub-Earth Point 53.15°N, 149.91°W
Launch Date Feb 20, 2026
Age 0.2 years
Type internet

Technical Details

Classification Payload
Mass 575.00 kg
Dry Mass 530.00 kg
Total Mass 575.00 kg
Length 0.30 m
Diameter 4.10 m
Span 29.00 m
Shape Box + pan
Manufacturer SPXS
Bus Type Starlink V2MO
Phase Status In Orbit
Owner/State SPXS/US

Most Searched